Regional Weather Roundup
Issued by NWS

Home | Current Version | Previous Version | Graphics & Text | Print | Product List | Glossary On
Versions: 1 2 3 4 5 6 7 8 9 10 11 12 13 14 15 16 17 18 19 20 21 22 23 24 25 26 27 28 29 30 31 32 33 34 35 36 37 38 39 40 41 42 43 44 45 46 47 48 49 50
000
ASUS45 KBOU 291007
RWRCO

WEATHER ROUNDUP FOR COLORADO
NATIONAL WEATHER SERVICE DENVER/BOULDER CO
400 AM MDT FRI AUG 29 2014

NOTE: "FAIR" INDICATES FEW OR NO CLOUDS BELOW 12000 FEET WITH NO
SIGNIFICANT WEATHER AND/OR OBSTRUCTIONS TO VISIBILITY.

COZ001>005-013-030-031-291100-
...NORTHWEST COLORADO...

CITY           SKY/WX    TMP DP  RH WIND       PRES   REMARKS
CRAIG          CLOUDY    50  47  89 CALM      30.23R
HAYDEN         PTCLDY    48  43  81 E9        30.24S
MEEKER         MOCLDY    47  44  90 E6        30.25S
MOUNT WERNER   NOT AVBL
STEAMBOAT SPGS CLOUDY    44  44  99 CALM      30.27S
WALDEN         PTCLDY    39  36  87 SE9       30.30S
$$

COZ006>008-011-291100-
...WEST CENTRAL VALLEYS...

CITY           SKY/WX    TMP DP  RH WIND       PRES   REMARKS
GRAND JUNCTION PTCLDY    58  50  75 E9        30.14S
MONTROSE       CLEAR     51  45  79 S6        30.23F
EAGLE          CLEAR     45  45 100 CALM      30.30S
RIFLE          CLEAR     51  49  92 NE5       30.22S
DELTA          CLEAR     55  50  81 NE3       30.20S
NUCLA          CLEAR     52  45  76 E5        30.25S
$$

COZ017>023-064>068-291100-
...SOUTHWEST COLORADO...

CITY           SKY/WX    TMP DP  RH WIND       PRES   REMARKS
DURANGO        CLEAR     47  38  71 NW6       30.23S
CORTEZ         CLEAR     46  42  86 CALM      30.21S
PAGOSA SPRINGS CLEAR     44  35  68 CALM      30.29S
TELLURIDE      PTCLDY    43  37  81 CALM      30.39F
WOLF CREEK PAS CLEAR     36  32  87 NE8       30.52F
$$

COZ009-010-012-014-032>034-037-058>063-291100-
...CENTRAL COLORADO...

CITY           SKY/WX    TMP DP  RH WIND       PRES   REMARKS
ASPEN          CLEAR     44  40  85 SW9       30.32F
BUENA VISTA    CLEAR     41  37  84 NW7       30.32S
COPPER MTN     CLOUDY    41  37  87 W14       30.54S FOG
BERTHOUD PASS  FOG       34  32  93 NW20      30.55S VSB<1/4 WCI  22
COTTONWOOD PAS CLEAR     50  36  57 W8G20     30.41S
GUNNISON       CLEAR     41  36  81 CALM      30.36F
KREMMLING      FOG       37  36  93 CALM      30.33S VSB 1/4
LEADVILLE      CLEAR     36  34  92 NE6       30.41F
MONARCH PASS   CLEAR     36  34  93 W10       30.62S
SALIDA         CLEAR     46  40  80 CALM      30.37S
SUNLIGHT       CLEAR     46  43  87 CALM      30.50S
WILKERSON PASS NOT AVBL
$$

COZ069>075-291100-
...SAN LUIS VALLEY/SANGRE DE CRISTO MOUNTAINS...

CITY           SKY/WX    TMP DP  RH WIND       PRES   REMARKS
ALAMOSA        CLEAR     39  36  89 SE5       30.29F
LA VETA PASS   NOT AVBL
SAGUACHE       NOT AVBL
$$

COZ035-036-038>040-291100-
...NORTHERN COLORADO FRONT RANGE...

CITY           SKY/WX    TMP DP  RH WIND       PRES   REMARKS
DENVER INTL AP CLEAR     54  46  74 SW12      30.08F
DMNS CITY PARK   N/A     54  46  74 S3        30.08S
AURORA         CLEAR     53  45  73 SW8       30.11S
FRONT RANGE AP CLEAR     57  46  67 SW12      30.09F
ERIE MUNI ARPT CLEAR     47  46  95 CALM      30.07F
BOULDER MUN AP CLEAR     54  46  76 CALM      30.07S
CENTENNIAL     CLEAR     56  42  59 SW12      30.12S
BROOMFIELD     CLEAR     63  41  45 W15       30.10S
FORT COLLINS   CLEAR     52  48  87 CALM      30.08S
LONGMONT       CLEAR     51  46  82 CALM      30.08F
$$

COZ041-046-047-076>085-087-088-291100-
...PIKES PEAK/PALMER DIVIDE AND SOUTHERN FOOTHILLS...

CITY           SKY/WX    TMP DP  RH WIND       PRES   REMARKS
COLO. SPRINGS  CLEAR     54  42  64 N8        30.15F
A. F. ACADEMY  CLEAR     47  41  80 NE6       30.17S
ELLICOTT       CLEAR     47  43  86 N5        30.13F
FALCON         CLEAR     53  40  60 NW8       30.19S
FORT CARSON    CLEAR     55  43  65 NW9       30.13S
LIMON          PTCLDY    48  45  89 NW3       30.10S
MONUMENT HILL  CLEAR     46  39  76 W9        30.19R
TRINIDAD       CLEAR     53  44  71 W18       30.14F
$$

COZ042>045-048>051-090-091-291100-
...NORTHEAST COLORADO...

CITY           SKY/WX    TMP DP  RH WIND       PRES   REMARKS
GREELEY ARPT   CLEAR     46  39  76 NW3       30.06S
AKRON          CLEAR     54  49  83 W12       30.03S
BURLINGTON     CLEAR     54  49  83 W5        30.00F
WRAY             N/A     54  53  95 CALM      29.97F
STERLING       CLEAR     55  54  94 S7        30.00S
HOLYOKE        CLEAR     61  54  77 W10       29.96F
FORT MORGAN    CLEAR     51  49  93 W8        30.04S
$$

COZ086-089-092>099-291100-
...SOUTHEAST COLORADO...

CITY           SKY/WX    TMP DP  RH WIND       PRES   REMARKS
PUEBLO         CLEAR     51  48  89 W7        30.09S
LA JUNTA       CLEAR     54  51  90 SW8       30.05F
LAMAR          MOCLDY    57  53  86 W7        29.99F
SPRINGFIELD      N/A     57  50  77 W9        30.04F
$$



USA.gov is the U.S. government's official web portal to all federal, state and local government web resources and services.